Location: ?????
(42.2640°N, 43.4211°E)
Time: 14:11:16
(UTC+00:00)

Cosmos 2082 - Pass Details

Date: 07 August 2020
Orbit: 834 x 855 km, 71.0° (Epoch: 20 September)

Event Time Altitude Azimuth Distance (km) Brightness Sun altitude
Exits shadow 00:11:05 29° 251° (WSW) 1,489 4.5 -18.4°
Maximum altitude 00:13:22 43° 301° (WNW) 1,168 4.3 -18.1°
Drops below altitude 10° 00:18:42 10° 12° (NNE) 2,452 6.9 -17.4°
Sets 00:21:17 0° 19° (NNE) 3,390 8.0 -17.0°
